Volver al catálogo

STARLINK-35163

ActivoComunicacionesVLEO
NORAD 65507·PAYLOAD·🇺🇸 United States

Lanzado Sep 5, 2025 desde Cape Canaveral Space Force Station

Loading…

Próximos Pases (próximas 24 horas)

TLE

ActualizadoSource: CelesTrak SupGP

Época: Sep 15, 2026, 03:26 UTC

1 65507C 25198R   26258.14354167  .00000993  00000+0  29366-4 0  2580
2 65507  53.1567 108.6148 0001189  82.7661 146.7464 15.34354441    16

Sigue STARLINK-35163 en tiempo real con AllMySat

Download on the App Store